User: anonymous   Login
Location: Doschendorf
(50.0069°N, 11.0602°E)
Time: 11:06:03
(UTC+00:00)
Language:

Cosmos 773 Rocket - Orbit

View from above orbital plane
View from above orbital plane
View from above satellite
View from above satellite

Ground track
Ground track

The orbit data is extracted from the following two-line orbital elements,

1  8344U 75094B   20028.81725064 -.00000011 +00000-0 +50819-5 0  9990
2  8344 074.0565 164.6148 0021987 189.4403 170.6342 14.39148813322893
Epoch (UTC): 28 January 2020 19:36:50
Eccentricity: 0.0021987
inclination: 74.0565°
perigee height: 745 km
apogee height: 777 km
right ascension of ascending node: 164.6148°
argument of perigee: 189.4403°
revolutions per day: 14.39148813
mean anomaly at epoch: 170.6342°
orbit number at epoch: 32289

The dashed part of the orbit path shows where the satellite is in the earth's shadow,  

DLR